Вернуться в каталог

THORAD DELTA 1 DEB

LostSSO
NORAD 42627·DEBRIS·🇺🇸 United States

Запущен Nov 15, 1974 с Vandenberg Space Force Base

Loading…

Ближайшие Пролёты (ближайшие 24 часа)

TLE

УстаревшееSource: Space-Track

Эпоха: Aug 5, 2025, 17:25 UTC

1 42627U 74089GU  25217.72591954  .00000065  00000-0  64607-3 0  9995
2 42627 101.6803 191.5424 0063642 176.7571 183.3928 12.57963128963920

Отслеживайте THORAD DELTA 1 DEB в реальном времени с AllMySat

Download on the App Store